Sokodé Airport

Jump to: basic info | weather | comments

Related pages: nearby airports | nearby navaids | notams | map

Basic information (top)

Codes: DXSK
Location: lon 8.983000, lat 1.150000, elev 1,214 ft / 370 m msl
Status: small_airport
Scheduled airline service: no
Links: Wikipedia Mobile

Weather (top)

Current conditions (rec'd 2014/08/30 18:00Z):

DXSK 301800Z 14004KT 9999 TS FEW013 FEW020CB BKN120 27/22 Q////

Airport forecast for Niamtougou International Airport 47nm (87km) N (rec'd 2014/08/30 18:33Z):

TAF TAF DXNG 301714Z 3018/3118 20007KT 9999 SCT008 
      TEMPO 3018/3020 TS SCT010 FEW020CB 
      BECMG 3107/3109 BKN007 
      TEMPO 3114/3118 TS BKN008 FEW020CB

Latest comments (top)

No comments yet for Sokodé Airport

More... (top)

See also NOTAMs and nearby airports and navaids, or visit the Sokodé Airport page at the main OurAirports website..